Printer-friendly version

IAU Minor Planet Center

Minor Planet Center

(43) Ariadne

Orbital Elements

The following orbital elements are taken from MPC 25032:
   (43) Ariadne
Epoch 2005 Jan. 30.0 TT = JDT 2453400.5  (M-c)          Goffin
M  11.21380              (2000.0)            P               Q
n   0.30138060     Peri.   15.91172     +0.18785794     +0.98034684
a   2.2032267      Node   264.94525     -0.90761454     +0.14982135
e   0.1676650      Incl.    3.46738     -0.37542674     +0.12834966
P   3.27           H    7.93          G   0.11           U   0
From 882 observations at 78 oppositions, 1857-1994, mean residual 1".01.
An explanation of the orbital elements is available.

These orbital elements are also available in forms suitable for loading into a number of popular planetarium-type software programs.


Ephemeris

The following ephemeris is at intervals of five days. A daily ephemeris covering the same time interval is also available.

Personalized ephemerides for this object (and others) can be generated using the MPES.

Date    TT    R. A. (2000) Decl.     Delta      r     Elong.  Phase     V
 
2005 08 19    02 18.92   +18 32.6    1.615    2.147   107.4    26.7    11.9
2005 08 24    02 21.46   +18 51.9    1.571    2.157   111.5    25.9    11.8
2005 08 29    02 23.25   +19 07.4    1.527    2.167   115.8    24.8    11.7
2005 09 03    02 24.25   +19 18.8    1.485    2.177   120.4    23.6    11.6
2005 09 08    02 24.43   +19 25.9    1.446    2.187   125.1    22.1    11.6
2005 09 13    02 23.75   +19 28.4    1.409    2.196   130.1    20.5    11.5
2005 09 18    02 22.23   +19 26.1    1.376    2.206   135.2    18.7    11.3
2005 09 23    02 19.87   +19 18.8    1.347    2.216   140.6    16.7    11.2
2005 09 28    02 16.72   +19 06.3    1.322    2.225   146.3    14.5    11.1
2005 10 03    02 12.84   +18 48.6    1.301    2.235   152.0    12.1    11.0
2005 10 08    02 08.36   +18 26.0    1.287    2.245   158.0     9.6    10.9
2005 10 13    02 03.42   +17 58.9    1.278    2.254   163.9     7.0    10.8
2005 10 18    01 58.19   +17 27.9    1.276    2.263   169.7     4.5    10.6
2005 10 23    01 52.86   +16 54.0    1.280    2.273   174.4     2.5    10.5
2005 10 28    01 47.60   +16 18.2    1.292    2.282   173.8     2.7    10.6
2005 11 02    01 42.60   +15 41.7    1.309    2.291   168.8     4.8    10.7
2005 11 07    01 38.03   +15 05.8    1.334    2.300   163.0     7.2    10.9
2005 11 12    01 34.02   +14 31.6    1.365    2.309   157.1     9.6    11.1
2005 11 17    01 30.68   +14 00.2    1.402    2.318   151.2    11.9    11.2
2005 11 22    01 28.07   +13 32.2    1.445    2.327   145.5    13.9    11.4
2005 11 27    01 26.21   +13 08.4    1.492    2.335   139.9    15.8    11.5
2005 12 02    01 25.14   +12 49.0    1.545    2.344   134.5    17.5    11.7
2005 12 07    01 24.85   +12 34.3    1.601    2.352   129.3    18.9    11.8

Back to Bright Minor Planets

Astronomical Headlines Index

MPC


Valid HTML 4.01!